[[{"header":{"parameterUnit":"m.s-1","parameterCategory":1,"la1":30.2991,"la2":30.254,"lo1":-89.0895,"lo2":-89.0444,"dy":0.0017,"dx":0.0017,"nx":28,"ny":28,"refTime":"2024-04-19T03:00:00:Z","depth":0,"parameterNumber":2,"parameterNumberName":"U-component_of_WINDS"},"data":[0,0,0,0,0,0,0,0,0,0,0,0,0,0,0,0,0,0,0,0,0,0,0,0,0,0,0,0,0,0,0,0,0,0,0,0,0,0,0,0,0,0,0,0,0,0,0,0,0,0,0,0,0,0,0,0,0,0,1.5997,1.5997,0,1.6007,1.6007,1.6007,1.598,1.598,1.5979,1.5978,1.5988,1.5989,1.599,0,0,0,0,0,0,0,0,0,0,0,0,0,1.5954,1.5955,1.5997,1.5997,1.5997,1.6007,1.6007,1.6007,1.5981,1.598,1.5979,1.5978,1.5988,1.5989,1.599,0,0,0,0,0,0,0,0,0,0,0,0,0,1.5969,1.5955,1.5997,1.5985,1.5984,1.6007,1.6007,1.6007,1.5981,1.5979,1.5978,1.5977,1.5987,1.5989,1.599,1.6025,0,0,1.5995,1.5996,0,0,0,0,0,0,0,0,1.5968,1.5971,1.5987,1.5986,1.5985,1.5991,1.5995,1.6013,1.5981,1.5982,1.5978,1.5976,1.599,1.5991,1.5996,1.6025,1.6026,1.5995,1.5996,1.5997,1.5997,0,0,0,0,0,0,0,1.5967,1.597,1.6001,1.5987,1.5986,1.5979,1.598,1.5999,1.5993,1.5982,1.598,1.5981,1.5989,1.5994,1.5996,1.6026,1.5995,1.5997,1.5998,1.5998,1.6081,1.6083,0,0,0,0,0,0,1.5968,1.597,1.6001,1.6001,1.5973,1.5981,1.5982,1.599,1.5993,1.5992,1.5983,1.598,1.5992,1.5994,1.5996,1.6035,1.5997,1.5998,1.5999,1.608,1.6082,1.6083,0,0,0,0,0,0,1.5967,1.5971,1.6,1.5985,1.5988,1.5983,1.5993,1.5991,1.5996,1.5993,1.5992,1.5989,1.5991,1.5994,1.6017,1.6035,1.5999,1.6,1.6079,1.6081,1.6082,1.6113,0,0,0,0,0,0,1.5966,1.5971,1.5984,1.5985,1.5989,1.6022,1.5994,1.5992,1.5999,1.5996,1.5999,1.5998,1.5991,1.6015,1.6019,1.6036,1.6002,1.6077,1.608,1.6082,1.6111,1.6116,1.6121,0,0,0,0,0,1.5965,1.5993,1.5985,1.5989,1.6006,1.6023,1.6025,1.6016,1.6001,1.6014,1.6011,1.5998,1.6033,1.6018,1.6022,1.604,1.6076,1.6079,1.6082,1.6109,1.6115,1.6121,0,0,0,0,0,0,1.5995,1.5993,1.5984,1.6014,1.6019,1.6018,1.6035,1.6023,1.6032,1.6029,1.6018,1.6019,1.6044,1.6044,1.6028,1.6072,1.6051,1.6055,1.6071,1.6077,1.6082,1.608,1.6003,0,0,0,0,0,1.6005,1.6019,1.6017,1.6044,1.6046,1.604,1.6047,1.604,1.6044,1.6046,1.6045,1.605,1.6061,1.6069,1.608,1.6111,1.611,1.6125,1.613,1.6134,1.6137,1.6152,1.6158,1.6092,1.6092,1.6092,0,0,1.6027,1.6027,1.6037,1.605,1.6052,1.6066,1.6042,1.6059,1.6069,1.6048,1.607,1.607,1.6074,1.61,1.6112,1.6102,1.6155,1.6138,1.6141,1.6142,1.6155,1.6161,1.6167,1.6094,1.6094,1.6094,0,0,1.6072,1.6075,1.6096,1.6099,1.6103,1.6098,1.6103,1.6104,1.6103,1.6124,1.6108,1.612,1.6141,1.6144,1.6148,1.6193,1.618,1.6197,1.6222,1.6236,1.6242,1.6246,1.626,1.6265,1.62,1.62,1.62,0,1.6098,1.6119,1.6109,1.6125,1.6131,1.6113,1.6133,1.6137,1.6144,1.6148,1.6136,1.616,1.6162,1.6188,1.6199,1.6203,1.6208,1.6196,1.6242,1.6246,1.625,1.6263,1.6269,1.6202,1.6202,1.6202,1.6202,0,1.6149,1.6164,1.6181,1.6187,1.6194,1.6213,1.6205,1.6214,1.6205,1.6202,1.6222,1.6224,1.6233,1.6239,1.6232,1.6264,1.6257,1.6244,1.6222,1.6258,1.627,1.6276,1.6205,1.6204,1.6204,1.6203,0,0,1.6215,1.6214,1.622,1.6222,1.6224,1.6235,1.6253,1.6261,1.6268,1.6274,1.6287,1.6304,1.6291,1.6296,1.6289,1.6301,1.6334,1.6286,1.6286,1.6293,1.6367,1.6375,1.6382,1.6326,1.6327,1.6328,1.6366,0,1.6258,1.6287,1.6278,1.6307,1.6319,1.6302,1.6316,1.6319,1.6316,1.6325,1.6322,1.6333,1.6317,1.6319,1.6331,1.6327,1.6348,1.6325,1.6337,1.6337,1.6335,1.6388,1.6398,1.6434,1.6371,1.6371,1.6372,0,1.6312,1.6319,1.6349,1.6347,1.6352,1.6366,1.6372,1.6382,1.6384,1.638,1.6385,1.6374,1.639,1.637,1.6391,1.6375,1.6379,1.6378,1.6379,1.6379,1.6356,1.6388,1.6445,1.645,1.638,1.6379,1.6379,0,1.6354,1.6371,1.639,1.6393,1.6392,1.6401,1.6401,1.6402,1.6407,1.6413,1.6416,1.6424,1.6427,1.6433,1.6424,1.6411,1.6446,1.6425,1.6443,1.6443,1.645,1.6449,1.6507,1.6456,1.6455,1.6455,1.6455,0,1.6403,1.6422,1.6409,1.6421,1.6441,1.643,1.645,1.6448,1.6448,1.6459,1.6445,1.6455,1.6443,1.6452,1.6446,1.6463,1.6465,1.6462,1.646,1.6463,1.6463,1.6464,1.6461,1.6457,1.6456,1.6456,1.6456,0,1.6453,1.6445,1.6465,1.6462,1.6461,1.6476,1.6473,1.6484,1.6479,1.6492,1.6495,1.6488,1.6497,1.6489,1.6499,1.6495,1.6517,1.6512,1.6516,1.6514,1.6531,1.6529,1.6591,1.6597,1.6543,1.6543,1.6544,0,1.6483,1.6497,1.6495,1.6501,1.6501,1.6511,1.6516,1.6505,1.6511,1.6513,1.6523,1.6531,1.6537,1.6553,1.6548,1.6555,1.6549,1.657,1.655,1.6552,1.6547,1.6546,1.6546,1.6574,1.6575,1.6575,1.6576,0,1.6538,1.6533,1.654,1.6546,1.6552,1.6556,1.6559,1.6565,1.6553,1.656,1.6569,1.6574,1.6583,1.6591,1.6596,1.6595,1.6583,1.6582,1.6586,1.6588,1.6589,1.6587,1.6525,1.6581,1.658,1.658,1.6579,1.6579,1.6578,1.6588,1.6587,1.6596,1.6597,1.6599,1.6608,1.6604,1.6611,1.6617,1.6611,1.6621,1.6622,1.6627,1.6628,1.6635,1.6627,1.6633,1.6634,1.6635,1.6637,1.6589,1.6637,1.6636,1.6636,1.6636,1.6636,0,1.6629,1.6628,1.6636,1.6639,1.6645,1.6633,1.6636,1.6641,1.6651,1.6652,1.6657,1.6667,1.6674,1.667,1.6676,1.6683,1.6677,1.6684,1.6683,1.6683,1.6646,1.6641,1.6688,1.6688,1.6688,1.6688,1.6688,1.6688,1.6657,1.6673,1.6668,1.6684,1.6683,1.6693,1.6695,1.6696,1.6697,1.6708,1.6714,1.671,1.6709,1.6714,1.672,1.6718,1.672,1.6729,1.6725,1.6691,1.6685,1.6681,1.6676,1.673,1.673,1.6761,1.6762,1.6762]},{"header":{"parameterUnit":"m.s-1","parameterCategory":1,"la1":30.2991,"la2":30.254,"lo1":-89.0895,"lo2":-89.0444,"dy":0.0017,"dx":0.0017,"nx":28,"ny":28,"refTime":"2024-04-19T03:00:00:Z","depth":0,"parameterNumber":3,"parameterNumberName":"V-component_of_WINDS"},"data":[0,0,0,0,0,0,0,0,0,0,0,0,0,0,0,0,0,0,0,0,0,0,0,0,0,0,0,0,0,0,0,0,0,0,0,0,0,0,0,0,0,0,0,0,0,0,0,0,0,0,0,0,0,0,0,0,0,0,2.2187,2.2188,0,2.2282,2.2283,2.2284,2.2287,2.2286,2.2284,2.2283,2.2379,2.2382,2.2386,0,0,0,0,0,0,0,0,0,0,0,0,0,2.2006,2.2009,2.2187,2.2188,2.2189,2.2282,2.2283,2.2284,2.2287,2.2285,2.2284,2.2283,2.2378,2.2382,2.2386,0,0,0,0,0,0,0,0,0,0,0,0,0,2.2091,2.201,2.2187,2.2202,2.2204,2.2282,2.2283,2.2285,2.2287,2.2285,2.2284,2.2282,2.2376,2.2382,2.2387,2.2455,0,0,2.2404,2.2406,0,0,0,0,0,0,0,0,2.2086,2.2097,2.2198,2.2201,2.2204,2.2271,2.2254,2.2342,2.2288,2.2256,2.2283,2.2281,2.2344,2.2352,2.2374,2.246,2.2464,2.2404,2.2407,2.241,2.2411,0,0,0,0,0,0,0,2.208,2.2093,2.2224,2.22,2.2203,2.2203,2.2213,2.2271,2.2308,2.2258,2.2259,2.227,2.2345,2.2369,2.2376,2.2465,2.2404,2.2409,2.2412,2.2414,2.2612,2.2614,0,0,0,0,0,0,2.2071,2.2088,2.2221,2.2227,2.2139,2.2208,2.2219,2.2251,2.2308,2.2315,2.2271,2.227,2.236,2.237,2.2379,2.2463,2.241,2.2415,2.2418,2.261,2.2612,2.2614,0,0,0,0,0,0,2.2068,2.2083,2.2218,2.2158,2.2175,2.2213,2.2248,2.2254,2.2277,2.2318,2.2324,2.2288,2.2359,2.2372,2.2437,2.2467,2.2417,2.2422,2.2608,2.2611,2.2613,2.2631,0,0,0,0,0,0,2.2062,2.2082,2.2109,2.2159,2.2178,2.2274,2.225,2.2257,2.2287,2.2285,2.2335,2.2342,2.2359,2.2428,2.2442,2.2473,2.2426,2.2605,2.2609,2.2612,2.2628,2.2635,2.264,0,0,0,0,0,2.2056,2.211,2.211,2.2126,2.2213,2.2276,2.2287,2.2305,2.2289,2.2316,2.2342,2.234,2.2461,2.2435,2.245,2.2484,2.2603,2.2608,2.2612,2.2626,2.2633,2.264,0,0,0,0,0,0,2.2062,2.2117,2.2118,2.2189,2.2228,2.2276,2.2311,2.2313,2.2356,2.2353,2.2374,2.2385,2.245,2.2473,2.2443,2.2553,2.253,2.2538,2.2535,2.2543,2.2549,2.2542,2.2431,0,0,0,0,0,2.2072,2.2119,2.2164,2.2223,2.2242,2.2273,2.2301,2.2312,2.2352,2.2368,2.2399,2.2438,2.2485,2.2515,2.256,2.2631,2.2642,2.2662,2.2668,2.2672,2.2679,2.2718,2.2727,2.2629,2.2629,2.2629,0,0,2.2092,2.2128,2.2156,2.2225,2.2256,2.2303,2.2287,2.2338,2.2373,2.2376,2.2439,2.2463,2.2508,2.2576,2.2608,2.2598,2.2708,2.2678,2.2681,2.2686,2.2724,2.2733,2.2741,2.2632,2.2632,2.2631,0,0,2.2154,2.2186,2.2239,2.227,2.2318,2.2338,2.235,2.2398,2.2414,2.2478,2.2481,2.2523,2.2603,2.2635,2.2661,2.2734,2.2734,2.2748,2.2779,2.2817,2.2825,2.2832,2.2858,2.2867,2.2755,2.2755,2.2755,0,2.2174,2.2246,2.2265,2.2317,2.2347,2.2352,2.2405,2.2434,2.2494,2.2514,2.2502,2.2602,2.2632,2.2708,2.2726,2.2747,2.2762,2.2743,2.2822,2.283,2.2836,2.2861,2.2871,2.2756,2.2756,2.2756,2.2756,0,2.2268,2.2318,2.2355,2.2413,2.2446,2.2498,2.2525,2.2556,2.2564,2.2585,2.265,2.2686,2.2739,2.2758,2.2766,2.2834,2.2827,2.2818,2.2796,2.2847,2.2871,2.2881,2.2758,2.2758,2.2757,2.2757,0,0,2.2337,2.2405,2.2418,2.2444,2.2496,2.2535,2.2587,2.2639,2.2666,2.2706,2.275,2.2817,2.281,2.284,2.2851,2.2884,2.294,2.2872,2.2873,2.2883,2.3018,2.3024,2.3035,2.294,2.2942,2.2943,2.3014,0,2.2405,2.2498,2.2516,2.2597,2.2643,2.2648,2.2693,2.273,2.2751,2.2792,2.2815,2.2863,2.2849,2.2867,2.2901,2.2926,2.2967,2.2921,2.298,2.2982,2.2969,2.3047,2.3054,2.3119,2.3023,2.3025,2.3026,0,2.2496,2.254,2.2625,2.2671,2.2691,2.2731,2.278,2.282,2.2862,2.2874,2.2908,2.2915,2.2969,2.2944,2.3017,2.2985,2.301,2.3026,2.3029,2.3036,2.3007,2.3056,2.314,2.315,2.3041,2.304,2.3039,0,2.2538,2.2618,2.2679,2.2701,2.2757,2.2785,2.2809,2.2849,2.2878,2.2921,2.294,2.2988,2.3014,2.305,2.307,2.305,2.3142,2.3119,2.3154,2.3154,2.3174,2.3172,2.3263,2.3189,2.3189,2.3189,2.3189,0,2.2612,2.2664,2.2699,2.2737,2.2795,2.2815,2.2871,2.2895,2.293,2.2972,2.2979,2.3018,2.3042,2.3084,2.31,2.3158,2.317,2.3181,2.3185,2.3181,2.318,2.3198,2.3194,2.3192,2.3191,2.319,2.319,0,2.2669,2.2694,2.2762,2.2808,2.2821,2.2862,2.2902,2.2938,2.2959,2.3012,2.3025,2.3058,2.3108,2.3131,2.3193,2.3203,2.327,2.327,2.3256,2.3257,2.3291,2.3288,2.3398,2.3413,2.3329,2.3329,2.333,0,2.2715,2.2755,2.2806,2.2835,2.286,2.2906,2.2937,2.2958,2.2989,2.3039,2.307,2.312,2.3161,2.3241,2.327,2.3317,2.3318,2.3354,2.3325,2.332,2.3319,2.3317,2.3321,2.3359,2.336,2.336,2.3361,0,2.2793,2.2804,2.2848,2.2897,2.2933,2.2972,2.3011,2.3034,2.306,2.3095,2.3147,2.3179,2.3242,2.3292,2.3341,2.3365,2.3368,2.3369,2.338,2.3377,2.3367,2.3373,2.327,2.3367,2.3366,2.3366,2.3366,2.3365,2.2846,2.2882,2.2924,2.2973,2.3004,2.3039,2.3076,2.3101,2.3145,2.3198,2.3208,2.3262,2.3302,2.3368,2.3394,2.3437,2.3428,2.3444,2.3448,2.3451,2.3453,2.336,2.3445,2.3445,2.3445,2.3445,2.3445,0,2.2925,2.2952,2.2997,2.3051,2.3089,2.3088,2.313,2.3162,2.3211,2.3248,2.3288,2.3347,2.3395,2.3428,2.3476,2.3504,2.3507,2.3516,2.3515,2.352,2.3458,2.3444,2.3514,2.3514,2.3514,2.3514,2.3514,2.3514,2.2971,2.3031,2.3047,2.3122,2.3149,2.3203,2.3227,2.326,2.329,2.3355,2.3396,2.3417,2.3452,2.3503,2.3547,2.3555,2.3573,2.3583,2.3591,2.3532,2.3525,2.3518,2.3505,2.3586,2.3586,2.365,2.365,2.3651]}]]